Weather Roundup
Issued by NWS

Home | Current Version | Previous Version | Graphics & Text | Print | Product List | Glossary Off
Versions: 1 2 3 4 5 6 7 8 9 10 11 12 13 14 15 16 17 18 19 20 21 22 23 24 25 26 27 28 29 30 31 32 33 34 35 36 37 38 39 40 41 42 43 44 45 46 47 48 49 50

000
NZUS93 KARX 300010
HRRWXR

CURRENT HOURLY OBSERVATIONS ACROSS
MUCH OF THE UPPER MISSISSIPPI VALLEY
NATIONAL WEATHER SERVICE LA CROSSE WI
700 PM CDT TUE JUL 29 2014


...SOUTHEAST MINNESOTA...


CITY           SKY/WX    TMP DP  RH WIND       PRES   REMARKS
ROCHESTER      SUNNY     74  54  49 NW7       30.07F
ROCHESTER/MAYO FAIR      74  49  40 W15G23    30.05S
WINONA         PTSUNNY   77  54  44 NW10      30.03R
AUSTIN         SUNNY     73  54  49 NW10      30.07S
ALBERT LEA     SUNNY     73  54  49 NW7       30.08S
DODGE CENTER   SUNNY     73  54  49 NW13      30.07F
PRESTON        SUNNY     72  60  67 NW10      30.07S
OWATONNA       SUNNY     75  52  43 W12       30.07F
FARIBAULT      SUNNY     79  46  31 W10       30.06F
$$

...ELSEWHERE IN MINNESOTA...


CITY           SKY/WX    TMP DP  RH WIND       PRES   REMARKS
MINNEAPOLIS    MOSUNNY   78  54  43 NW16G22   30.03F
INTNL FALLS    PTSUNNY   64  59  83 W7        30.03F
DULUTH         LGT RAIN  65  58  78 NW14      30.04R
RED WING       LGT RAIN  68  63  83 CALM      30.02F
REDWOOD FALLS  SUNNY     76  51  41 NW7       30.09S
MANKATO        SUNNY     75  52  43 NW10      30.07F
WORTHINGTON    SUNNY     70  55  60 NW5       30.14S
FAIRMONT       SUNNY     75  48  38 NW8       30.09F
$$

...SOUTHWEST WISCONSIN...


CITY           SKY/WX    TMP DP  RH WIND       PRES   REMARKS
LA CROSSE      PTSUNNY   72  59  63 NE14G22   30.03S
PRAIRIE DU CHI SUNNY     77  52  41 W8        30.02S
BOSCOBEL       CLOUDY    72  56  57 E6        30.03R
LONE ROCK      LGT RAIN  70  59  68 CALM      30.03S
PLATTEVILLE    MOSUNNY   76  55  48 W7        30.04S
FORT MC COY    TSTM      62  58  90 E6        30.08R
CAMP DOUGLAS   LGT RAIN  61  61 100 W8        30.05F
VIROQUA        MOCLDY    68  60  76 CALM      30.05S
WIS DELLS      CLOUDY    63  58  85 SW3       30.03F
$$

...ELSEWHERE IN WISCONSIN...


CITY           SKY/WX    TMP DP  RH WIND       PRES   REMARKS
MILWAUKEE      PTSUNNY   76  52  43 NW10      29.97F
MADISON        LGT RAIN  66  57  72 VRB7G20   30.00S
GREEN BAY      PTSUNNY   62  59  90 SW5       29.98F
EAU CLAIRE     MOSUNNY   71  58  63 W7        30.02S
BLACK RVR FLS  CLOUDY    63  62  98 S5        30.04F
MEDFORD        CLOUDY    58  55  92 CALM      30.04F
WAUSAU         LGT RAIN  61  57  87 W8        30.00F
WIS RAPIDS     PTSUNNY   65  59  81 W7        30.04R
MARSHFIELD     PTSUNNY   66  59  78 NW6       30.04S
RICE LAKE      PTSUNNY   72  57  60 W9        30.04S
$$

...NORTHEAST IOWA...


CITY           SKY/WX    TMP DP  RH WIND       PRES   REMARKS
WATERLOO       SUNNY     75  55  49 NW8       30.05F
DUBUQUE        SUNNY     73  59  61 W7        30.05S
DECORAH        MOSUNNY   73  57  56 NW7       30.05R
MASON CITY     SUNNY     74  56  53 NW9       30.09F
CHARLES CITY   MOSUNNY   73  55  53 NW10      30.07F
OELWEIN        SUNNY     73  57  56 NW9       30.07S
$$

...ELSEWHERE IN IOWA...


CITY           SKY/WX    TMP DP  RH WIND       PRES   REMARKS
DES MOINES     MOSUNNY   78  52  40 NW7       30.08F
IOWA CITY      SUNNY     76  58  53 W12       30.06F
FORT DODGE     SUNNY     73  55  53 N3        30.11S
MARSHALLTOWN   SUNNY     74  58  57 NW8       30.07F
CEDAR RAPIDS   MOSUNNY   74  58  57 W8        30.05F
$$

...NORTHERN ILLINOIS...


CITY           SKY/WX    TMP DP  RH WIND       PRES   REMARKS
CHICAGO-OHARE  MOSUNNY   75  55  49 W13       29.98S
DUPAGE         SUNNY     72  59  63 W12       30.00S
CHICAGO-MIDWAY PTSUNNY   77  57  50 W10       29.99S
MOLINE         SUNNY     77  56  48 W10       30.03F
ROCKFORD       PTSUNNY   75  56  51 NW14      30.02S
STERLING       SUNNY     75  57  53 NW9       30.03S
PEORIA         SUNNY     78  57  48 W8        30.05S
$$

NOTE: "FAIR" INDICATES FEW OR NO CLOUDS BELOW 12,000 FEET WITH NO
SIGNIFICANT WEATHER AND/OR OBSTRUCTIONS TO VISIBILITY. WIND
SPEEDS ARE IN MILES-PER-HOUR.



USA.gov is the U.S. government's official web portal to all federal, state and local government web resources and services.